| time (UTC) | temp C | wind direction | speed KPH | gust KPH | rain 1hr cm | rain 24hr cm | rain mn cm | humidity % | barometer mb |
| 20260508121518 | 16 | 136 | 4.8 | 11.3 | 0.00 | 0.00 | 0.00 | 70 | 1018.1 |
| 20260508120016 | 16 | 232 | 1.6 | 8.0 | 0.00 | 0.00 | 0.00 | 70 | 1018.0 |
| 20260508114515 | 15 | 191 | 3.2 | 12.9 | 0.00 | 0.00 | 0.00 | 72 | 1018.0 |
| 20260508113018 | 15 | 196 | 4.8 | 11.3 | 0.00 | 0.00 | 0.00 | 72 | 1017.9 |
| 20260508111514 | 15 | 248 | 4.8 | 11.3 | 0.00 | 0.00 | 0.00 | 70 | 1017.9 |
| 20260508110012 | 16 | 231 | 3.2 | 11.3 | 0.00 | 0.00 | 0.00 | 71 | 1017.9 |
| 20260508104507 | 15 | 228 | 1.6 | 12.9 | 0.00 | 0.00 | 0.00 | 75 | 1017.9 |
| 20260508103005 | 14 | 274 | 3.2 | 11.3 | 0.00 | 0.00 | 0.00 | 78 | 1017.9 |
| 20260508101600 | 13 | 220 | 3.2 | 12.9 | 0.00 | 0.00 | 0.00 | 80 | 1018.0 |
| 20260508100058 | 13 | 81 | 3.2 | 9.7 | 0.00 | 0.00 | 0.00 | 80 | 1017.9 |
| 20260508094556 | 12 | 205 | 1.6 | 8.0 | 0.00 | 0.00 | 0.00 | 83 | 1017.9 |
| 20260508093101 | 11 | 205 | 1.6 | 8.0 | 0.00 | 0.00 | 0.00 | 84 | 1018.1 |
| 20260508091551 | 11 | 111 | 1.6 | 4.8 | 0.00 | 0.00 | 0.00 | 85 | 1018.0 |
| 20260508090055 | 11 | 84 | 1.6 | 6.4 | 0.00 | 0.00 | 0.00 | 85 | 1018.0 |
| 20260508084544 | 11 | 211 | 0.0 | 6.4 | 0.00 | 0.00 | 0.00 | 85 | 1017.9 |
| 20260508083048 | 11 | 298 | 0.0 | 8.0 | 0.00 | 0.00 | 0.00 | 85 | 1017.7 |
| 20260508081542 | 11 | 204 | 0.0 | 3.2 | 0.00 | 0.00 | 0.00 | 86 | 1017.7 |
| 20260508080039 | 11 | 190 | 0.0 | 6.4 | 0.00 | 0.00 | 0.00 | 87 | 1017.5 |
| 20260508074534 | 10 | 155 | 1.6 | 6.4 | 0.00 | 0.00 | 0.00 | 88 | 1017.2 |
| 20260508073036 | 10 | 213 | 4.8 | 9.7 | 0.00 | 0.00 | 0.00 | 88 | 1017.1 |
| 20260508071532 | 9 | 215 | 3.2 | 8.0 | 0.00 | 0.00 | 0.00 | 89 | 1017.0 |
| 20260508070025 | 8 | 229 | 1.6 | 4.8 | 0.00 | 0.00 | 0.00 | 89 | 1017.0 |
| 20260508064527 | 8 | 226 | 1.6 | 8.0 | 0.00 | 0.00 | 0.00 | 89 | 1016.7 |
| 20260508063021 | 8 | 257 | 1.6 | 8.0 | 0.00 | 0.00 | 0.00 | 90 | 1016.5 |
| 20260508061520 | 8 | 228 | 3.2 | 14.5 | 0.00 | 0.00 | 0.00 | 90 | 1016.5 |
| 20260508060019 | 8 | 221 | 1.6 | 6.4 | 0.00 | 0.00 | 0.00 | 90 | 1016.3 |
| 20260508054518 | 8 | 210 | 1.6 | 6.4 | 0.00 | 0.00 | 0.00 | 90 | 1016.5 |
| 20260508053017 | 8 | 214 | 3.2 | 8.0 | 0.00 | 0.00 | 0.00 | 89 | 1016.4 |
| 20260508051516 | 8 | 194 | 1.6 | 9.7 | 0.00 | 0.00 | 0.00 | 89 | 1016.3 |
| 20260508050015 | 8 | 143 | 1.6 | 9.7 | 0.00 | 0.00 | 0.00 | 89 | 1016.3 |
| 20260508044514 | 8 | 183 | 0.0 | 4.8 | 0.00 | 0.00 | 0.00 | 89 | 1016.2 |
| 20260508043013 | 8 | 212 | 0.0 | 8.0 | 0.00 | 0.00 | 0.00 | 89 | 1016.3 |
| 20260508041512 | 8 | 325 | 0.0 | 1.6 | 0.00 | 0.00 | 0.00 | 89 | 1016.2 |
| 20260508040011 | 8 | 215 | 1.6 | 8.0 | 0.00 | 0.00 | 0.00 | 89 | 1015.9 |
| 20260508034509 | 8 | 233 | 4.8 | 11.3 | 0.00 | 0.00 | 0.00 | 88 | 1015.8 |
| 20260508033009 | 8 | 215 | 6.4 | 12.9 | 0.00 | 0.00 | 0.00 | 88 | 1015.9 |
| 20260508031506 | 8 | 228 | 6.4 | 11.3 | 0.00 | 0.00 | 0.00 | 88 | 1015.9 |
| 20260508030005 | 8 | 225 | 1.6 | 9.7 | 0.00 | 0.00 | 0.00 | 87 | 1016.1 |
| 20260508024503 | 8 | 191 | 4.8 | 12.9 | 0.00 | 0.00 | 0.00 | 87 | 1016.0 |
| 20260508023003 | 8 | 219 | 3.2 | 14.5 | 0.00 | 0.00 | 0.00 | 86 | 1016.0 |
| 20260508021602 | 8 | 224 | 4.8 | 12.9 | 0.00 | 0.00 | 0.00 | 86 | 1016.1 |
| 20260508020103 | 8 | 212 | 4.8 | 14.5 | 0.00 | 0.00 | 0.00 | 86 | 1016.1 |
| 20260508014558 | 8 | 224 | 4.8 | 11.3 | 0.00 | 0.00 | 0.00 | 86 | 1016.0 |
| 20260508013100 | 8 | 225 | 3.2 | 9.7 | 0.00 | 0.00 | 0.00 | 86 | 1016.0 |
| 20260508011558 | 8 | 253 | 3.2 | 14.5 | 0.00 | 0.00 | 0.00 | 86 | 1016.1 |
| 20260508010053 | 8 | 197 | 3.2 | 12.9 | 0.00 | 0.00 | 0.00 | 86 | 1016.2 |
| 20260508004551 | 8 | 229 | 4.8 | 14.5 | 0.00 | 0.00 | 0.00 | 86 | 1016.1 |
| 20260508003049 | 8 | 203 | 8.0 | 22.5 | 0.00 | 0.00 | 0.00 | 86 | 1016.2 |
| 20260508001609 | 8 | 266 | 3.2 | 17.7 | 0.00 | 0.00 | 0.00 | 87 | 1016.3 |
| 20260508000047 | 8 | 225 | 6.4 | 17.7 | 0.00 | 0.00 | 0.00 | 87 | 1016.4 |
| 20260507234543 | 8 | 187 | 4.8 | 19.3 | 0.00 | 0.00 | 0.00 | 87 | 1016.3 |
| 20260507233039 | 8 | 270 | 8.0 | 19.3 | 0.00 | 0.00 | 0.00 | 88 | 1016.2 |
| 20260507231537 | 8 | 221 | 6.4 | 17.7 | 0.00 | 0.00 | 0.00 | 88 | 1016.1 |
| 20260507230030 | 8 | 202 | 6.4 | 14.5 | 0.00 | 0.00 | 0.00 | 89 | 1016.2 |
| 20260507224541 | 8 | 276 | 4.8 | 11.3 | 0.00 | 0.00 | 0.00 | 89 | 1016.3 |
| 20260507223029 | 8 | 262 | 4.8 | 12.9 | 0.00 | 0.00 | 0.00 | 89 | 1016.3 |
| 20260507221529 | 8 | 236 | 1.6 | 19.3 | 0.00 | 0.00 | 0.00 | 88 | 1016.4 |
| 20260507220039 | 8 | 208 | 4.8 | 14.5 | 0.00 | 0.00 | 0.00 | 88 | 1016.4 |
| 20260507214535 | 8 | 117 | 3.2 | 11.3 | 0.00 | 0.00 | 0.00 | 88 | 1016.3 |
| 20260507213032 | 8 | 240 | 3.2 | 12.9 | 0.00 | 0.00 | 0.00 | 88 | 1016.5 |
| 20260507211526 | 8 | 95 | 3.2 | 9.7 | 0.00 | 0.00 | 0.00 | 88 | 1016.3 |
| 20260507210026 | 8 | 273 | 0.0 | 9.7 | 0.00 | 0.00 | 0.00 | 87 | 1016.4 |
| 20260507204525 | 8 | 198 | 1.6 | 6.4 | 0.00 | 0.00 | 0.00 | 86 | 1016.4 |
| 20260507203029 | 8 | 146 | 3.2 | 6.4 | 0.00 | 0.00 | 0.00 | 86 | 1016.4 |
| 20260507201524 | 9 | 195 | 3.2 | 9.7 | 0.00 | 0.00 | 0.00 | 85 | 1016.3 |
| 20260507200027 | 9 | 124 | 1.6 | 14.5 | 0.00 | 0.00 | 0.00 | 85 | 1016.2 |
| 20260507194523 | 9 | 251 | 4.8 | 14.5 | 0.00 | 0.00 | 0.00 | 85 | 1016.1 |
| 20260507193025 | 9 | 134 | 1.6 | 16.1 | 0.00 | 0.00 | 0.00 | 84 | 1016.0 |
| 20260507191522 | 10 | 301 | 1.6 | 9.7 | 0.00 | 0.00 | 0.00 | 84 | 1015.9 |
| 20260507190022 | 10 | 82 | 3.2 | 12.9 | 0.00 | 0.00 | 0.00 | 83 | 1015.8 |
| 20260507184521 | 10 | 149 | 1.6 | 8.0 | 0.00 | 0.00 | 0.00 | 82 | 1016.0 |
| 20260507183023 | 10 | 124 | 3.2 | 11.3 | 0.00 | 0.00 | 0.00 | 81 | 1015.8 |
| 20260507181520 | 11 | 70 | 0.0 | 4.8 | 0.00 | 0.00 | 0.00 | 80 | 1015.8 |
| 20260507180024 | 11 | 94 | 4.8 | 11.3 | 0.00 | 0.00 | 0.00 | 79 | 1015.7 |
| 20260507174532 | 11 | 118 | 3.2 | 8.0 | 0.00 | 0.00 | 0.00 | 79 | 1015.8 |
| 20260507173020 | 11 | 329 | 1.6 | 9.7 | 0.00 | 0.00 | 0.00 | 79 | 1015.8 |
| 20260507171519 | 11 | 141 | 3.2 | 11.3 | 0.00 | 0.00 | 0.00 | 78 | 1015.8 |
| 20260507170025 | 11 | 120 | 1.6 | 8.0 | 0.00 | 0.00 | 0.00 | 78 | 1015.8 |
| 20260507164516 | 11 | 188 | 3.2 | 9.7 | 0.00 | 0.00 | 0.00 | 78 | 1016.0 |
| 20260507163015 | 11 | 195 | 3.2 | 8.0 | 0.00 | 0.00 | 0.00 | 77 | 1015.9 |
| 20260507161514 | 11 | 183 | 3.2 | 14.5 | 0.00 | 0.00 | 0.00 | 78 | 1015.9 |
| 20260507160016 | 11 | 93 | 4.8 | 11.3 | 0.00 | 0.00 | 0.00 | 76 | 1016.0 |
| 20260507154512 | 11 | 150 | 3.2 | 11.3 | 0.00 | 0.00 | 0.00 | 76 | 1016.0 |
| 20260507153018 | 12 | 229 | 3.2 | 8.0 | 0.00 | 0.00 | 0.00 | 75 | 1016.0 |
| 20260507151512 | 12 | 104 | 3.2 | 8.0 | 0.00 | 0.00 | 0.00 | 74 | 1016.0 |
| 20260507150011 | 12 | 82 | 3.2 | 16.1 | 0.00 | 0.00 | 0.00 | 74 | 1016.1 |
| 20260507144512 | 12 | 139 | 3.2 | 11.3 | 0.00 | 0.00 | 0.00 | 74 | 1016.1 |
| 20260507143009 | 12 | 79 | 8.0 | 19.3 | 0.00 | 0.00 | 0.00 | 73 | 1016.2 |
| 20260507141509 | 13 | 79 | 4.8 | 14.5 | 0.00 | 0.00 | 0.00 | 73 | 1016.2 |
| 20260507140008 | 13 | 126 | 4.8 | 11.3 | 0.00 | 0.00 | 0.00 | 71 | 1016.3 |
| 20260507134506 | 12 | 109 | 3.2 | 12.9 | 0.00 | 0.00 | 0.00 | 72 | 1016.3 |
| 20260507133006 | 12 | 134 | 6.4 | 12.9 | 0.00 | 0.00 | 0.00 | 72 | 1016.4 |
| 20260507131510 | 12 | 209 | 4.8 | 12.9 | 0.00 | 0.00 | 0.00 | 71 | 1016.3 |
| 20260507130004 | 12 | 253 | 3.2 | 14.5 | 0.00 | 0.00 | 0.00 | 71 | 1016.3 |
| 20260507124508 | 13 | 122 | 3.2 | 12.9 | 0.00 | 0.00 | 0.00 | 68 | 1016.4 |
| 20260507123002 | 12 | 92 | 3.2 | 17.7 | 0.00 | 0.00 | 0.00 | 69 | 1016.4 |